Theta_e
289 289 288 288 288 288 288 288 288 289 289 289 289 289 289 289 289 289 288 288 289 289 289 289 289 289 289 289 288 287 287 286 287 287 288 288 289 289 289 290 290 290 290 290 290 291 291 291 291 292 292 292 292 293 293 293 293 294 294 294 294 295 295 295 295 295 295 296 296 296 296 296 296 296 295 295 295 295 295 296 296 296 296 296 297 297
289 289 288 288 288 288 288 288 289 289 289 289 289 289 289 289 289 289 288 289 289 289 289 289 289 289 289 289 288 287 287 286 287 287 288 288 289 289 289 289 289 289 289 290 290 290 290 290 291 291 291 291 292 292 292 292 293 293 293 293 293 294 294 294 294 294 294 295 295 295 295 295 295 295 295 295 295 295 295 296 296 296 296 296 297 297
289 289 288 288 288 288 288 289 289 289 289 289 289 289 289 289 289 289 288 289 289 289 289 289 289 289 288 288 288 287 287 286 287 287 288 288 288 288 288 288 289 289 289 289 289 289 289 290 290 290 290 291 291 291 292 292 292 292 292 292 292 293 293 293 293 293 293 294 294 294 294 294 294 294 294 294 294 295 295 295 295 295 296 296 296 297
288 288 288 288 288 288 289 289 289 289 289 289 289 288 289 289 289 289 289 289 289 289 289 289 288 288 288 288 287 287 287 286 287 287 287 287 288 288 288 288 288 288 288 288 288 289 289 289 289 290 290 291 291 291 291 291 291 291 291 292 292 292 292 292 292 292 293 293 293 293 293 293 293 293 293 294 294 294 294 295 295 295 295 296 296 296
288 288 288 288 288 289 289 289 289 289 289 288 288 288 288 288 288 288 289 289 289 289 289 288 288 287 287 287 287 287 287 286 287 287 287 287 287 287 287 288 288 288 288 288 288 288 289 289 289 289 290 290 290 290 290 291 291 291 291 291 291 291 291 292 292 292 292 292 292 292 292 292 292 292 293 293 293 293 294 294 294 295 295 295 296 296
287 288 288 288 288 288 289 289 289 289 288 288 288 288 288 288 288 289 289 289 289 289 288 288 287 287 287 287 287 287 287 287 287 287 287 287 287 287 288 288 288 288 288 288 288 288 288 288 288 289 289 289 289 290 290 290 290 290 290 290 290 291 291 291 291 291 291 291 291 291 291 291 291 292 292 292 293 293 293 294 294 295 295 295 295 296
287 287 287 288 288 288 288 289 289 289 288 288 288 288 288 288 288 289 289 289 289 289 288 287 287 287 287 287 287 287 287 287 287 287 287 287 288 288 288 288 288 288 288 288 288 288 288 288 288 288 288 288 288 289 289 289 289 289 289 290 290 290 290 290 290 290 290 290 290 290 290 291 291 291 292 292 293 293 293 294 294 294 294 294 295 295
286 287 287 287 288 288 289 289 289 288 288 288 288 288 288 288 289 289 289 289 288 288 288 287 287 287 287 287 287 287 287 287 288 288 288 288 288 288 288 288 288 288 288 287 287 287 287 287 287 287 287 287 288 288 288 288 288 288 288 288 288 288 288 288 288 289 289 289 289 290 290 291 291 292 292 292 292 293 293 293 293 294 294 294 294 294
286 287 287 287 288 288 289 289 289 288 288 288 288 288 288 288 289 289 289 288 288 288 287 287 287 287 287 287 287 287 287 288 288 288 288 288 288 288 288 288 287 287 287 287 287 287 287 287 287 287 287 287 287 287 287 287 287 287 287 287 287 287 287 287 288 288 288 289 290 290 291 291 291 291 292 292 292 292 292 293 293 293 293 293 293 294
286 287 287 288 288 288 288 289 288 288 288 288 288 288 288 289 289 289 288 288 288 287 287 287 287 287 287 287 287 287 287 288 288 288 288 288 288 288 287 287 287 287 287 287 287 287 287 287 287 287 286 286 286 286 286 286 286 286 286 286 286 286 287 287 288 288 289 289 290 290 291 291 291 291 291 292 292 292 292 292 292 292 292 293 293 293
287 287 288 288 288 288 288 288 288 288 288 288 288 288 288 289 289 288 288 288 287 287 287 286 286 286 287 287 287 287 287 288 288 288 288 288 288 287 287 287 287 287 287 287 287 287 286 286 286 286 286 286 286 286 286 286 286 286 286 286 286 287 287 287 288 289 289 290 290 290 290 290 291 291 291 291 291 292 292 292 292 292 292 292 292 293
287 288 288 288 288 288 288 288 288 288 288 288 288 289 289 289 288 288 288 287 287 287 287 286 286 286 287 287 287 287 288 288 288 288 288 288 288 288 288 288 287 287 287 287 287 286 286 286 286 286 286 286 286 286 286 286 286 286 286 286 286 287 287 288 288 289 289 289 289 290 290 290 290 291 291 291 291 291 291 291 292 292 292 292 292 292
288 288 288 288 288 288 288 288 288 288 289 289 289 289 289 288 288 287 287 287 287 287 287 286 286 286 287 287 287 288 288 288 288 288 288 288 288 288 288 287 287 287 287 287 287 287 286 286 286 286 286 286 286 286 286 286 286 286 286 286 287 287 288 288 288 288 289 289 289 289 290 290 290 290 290 291 291 291 291 291 291 291 291 291 292 292
288 288 289 289 289 289 289 289 289 289 289 288 288 288 288 288 287 287 287 287 286 286 286 286 286 287 287 287 288 288 288 288 288 288 288 288 288 288 287 287 287 287 287 287 287 287 286 286 286 286 286 286 286 286 286 286 286 286 286 286 287 287 288 288 288 288 289 289 289 289 289 290 290 290 290 290 290 291 291 291 291 291 291 291 291 291
288 289 289 289 289 289 289 289 289 289 288 288 288 288 288 287 287 287 286 286 286 286 286 286 287 287 287 288 288 288 288 288 288 288 288 288 288 287 287 287 287 287 287 287 287 286 286 286 286 286 286 286 286 286 286 286 286 286 286 286 287 287 287 288 288 288 288 289 289 289 289 289 290 290 290 290 290 290 290 290 291 291 291 291 291 291
289 289 289 289 289 289 289 289 289 289 288 288 288 288 287 287 287 286 286 286 286 286 286 286 287 287 288 288 288 288 288 288 288 288 288 287 287 287 287 287 287 286 286 286 286 286 286 286 286 286 286 286 286 286 286 285 286 286 286 286 286 287 287 287 288 288 288 288 289 289 289 289 289 289 290 290 290 290 290 290 290 290 290 291 291 291
289 289 289 289 289 289 289 289 289 289 288 288 288 287 287 287 287 286 286 286 286 286 286 287 287 287 288 288 288 288 288 288 288 288 287 287 287 287 287 286 286 286 286 286 286 286 286 286 286 286 286 286 286 286 285 285 285 286 286 286 286 287 287 287 288 288 288 288 288 288 289 289 289 289 289 290 290 290 290 290 290 290 290 290 290 291
290 290 290 290 290 289 289 289 289 288 288 288 287 287 287 287 287 286 286 286 286 286 286 287 287 287 288 288 288 288 288 288 288 287 287 287 287 287 286 286 286 286 286 286 286 286 286 286 286 286 286 286 285 285 285 285 285 286 286 286 286 287 287 287 287 288 288 288 288 288 288 289 289 289 289 289 289 289 289 290 290 290 290 290 290 290
290 290 290 290 290 290 289 289 289 288 288 287 287 287 287 287 286 286 286 286 286 286 287 287 287 287 287 287 288 288 288 288 287 287 287 286 286 286 286 286 286 286 286 286 286 286 286 286 286 286 286 285 285 285 285 285 286 286 286 286 286 286 286 287 287 287 287 288 288 288 288 288 288 289 289 289 289 289 289 289 289 290 290 290 290 290
291 290 290 290 290 289 289 289 288 288 288 287 287 287 287 287 286 286 286 286 287 287 287 287 287 287 287 287 287 288 287 287 287 286 286 286 286 286 286 286 286 286 286 286 286 286 286 286 286 286 285 285 285 285 285 285 285 286 286 286 286 286 286 286 286 287 287 287 287 288 288 288 288 288 288 289 289 289 289 289 289 289 289 289 289 289
290 290 290 289 289 289 289 288 288 288 288 287 287 287 287 287 286 286 287 287 287 287 287 287 287 287 287 287 287 287 287 286 286 286 286 286 285 285 285 285 286 286 286 286 286 286 285 285 285 285 285 285 285 285 285 285 285 285 286 286 286 286 286 286 286 286 287 287 287 287 288 288 288 288 288 288 288 288 289 289 289 289 289 289 289 289
289 289 289 289 289 288 288 288 288 288 287 287 287 287 287 287 287 287 287 287 287 287 288 288 288 287 287 287 286 286 286 286 286 286 285 285 285 285 285 285 285 285 286 285 285 285 285 285 285 285 285 285 285 285 285 285 285 285 285 285 286 286 286 286 286 286 286 287 287 287 287 287 288 288 288 288 288 288 288 288 288 289 289 289 289 289
288 288 288 288 288 288 288 288 288 287 287 287 287 287 287 287 287 287 287 287 287 287 287 287 287 287 286 286 286 286 286 286 286 285 285 285 285 285 285 285 285 285 285 285 285 285 285 285 285 285 285 285 285 285 285 285 285 285 285 285 285 285 285 285 286 286 286 286 287 287 287 287 287 287 287 287 287 288 288 288 288 288 288 288 288 288
287 287 287 287 287 287 287 287 287 287 287 287 287 287 287 287 287 286 286 287 287 287 287 287 286 286 286 286 286 285 285 285 285 285 285 285 285 285 285 285 285 285 285 285 285 285 285 285 285 285 285 285 285 285 285 285 285 285 285 285 285 285 285 285 285 286 286 286 286 286 286 287 287 287 287 287 287 287 288 288 288 288 288 288 288 288
287 287 287 287 287 287 287 287 287 287 287 287 287 287 287 287 287 287 287 287 287 287 286 286 286 286 285 285 285 285 285 285 285 285 284 284 284 284 284 284 284 284 285 285 285 285 285 285 284 284 285 285 285 285 285 285 285 285 285 285 285 285 285 285 285 286 286 286 286 286 286 286 286 286 287 287 287 287 287 287 288 288 288 288 288 288
286 286 286 286 286 286 287 287 287 287 287 287 287 287 287 288 288 287 287 287 287 286 286 286 285 285 285 285 285 285 285 285 285 285 284 284 284 284 284 284 284 284 284 284 284 284 284 284 284 284 284 285 285 285 285 285 285 285 285 285 285 285 285 285 285 285 285 285 285 286 286 286 286 286 287 287 287 287 287 287 287 287 287 287 288 288
286 287 287 287 287 287 287 287 287 287 288 288 289 289 289 289 288 287 287 287 286 286 286 285 285 285 285 285 285 285 285 284 284 284 284 284 284 284 284 284 284 284 284 284 284 284 284 284 284 284 284 285 285 285 285 285 285 285 285 285 285 285 285 285 285 285 285 285 285 286 286 286 286 286 286 287 287 287 287 287 287 287 287 287 287 287
287 287 287 287 287 287 287 288 288 288 289 290 290 290 289 288 287 287 287 286 286 285 285 285 285 284 284 284 284 284 284 284 284 284 284 284 284 284 284 284 284 284 284 284 284 284 284 284 284 284 285 285 285 285 285 285 285 285 284 284 284 285 285 285 285 285 285 285 285 286 286 286 286 286 286 286 287 287 287 287 287 287 287 287 287 287
287 287 287 287 287 287 287 288 288 289 289 288 288 287 287 287 287 286 286 286 285 285 285 284 284 284 284 284 284 284 283 283 283 284 284 284 284 284 284 284 284 284 284 284 283 283 284 284 284 285 285 285 285 285 285 285 284 284 284 284 284 284 285 285 285 285 285 285 285 285 285 286 286 286 286 286 286 286 287 287 287 287 287 287 287 287
287 287 287 287 287 287 287 287 288 288 287 287 286 286 286 286 286 286 285 285 285 284 284 284 284 284 284 284 283 283 283 283 284 284 283 283 283 284 284 284 284 284 283 283 283 284 284 284 284 284 285 285 284 284 284 284 284 284 284 284 284 284 285 285 285 285 285 285 285 285 285 286 286 286 286 286 286 286 286 286 286 286 286 287 287 287
287 287 287 287 287 287 287 287 287 287 286 286 285 285 285 285 285 285 285 284 284 284 284 284 284 284 283 283 283 283 283 284 284 284 283 283 283 283 283 283 283 283 283 283 283 283 284 284 284 284 284 284 284 284 284 284 284 284 284 284 284 284 285 284 285 285 285 285 285 285 285 285 286 286 286 286 286 286 286 286 286 286 286 286 286 286
287 287 287 287 287 287 287 287 286 286 285 285 285 285 285 285 285 284 284 284 283 283 283 283 283 283 283 282 282 283 283 283 283 283 283 283 283 283 283 283 283 283 283 282 282 282 283 283 283 283 283 283 283 283 283 284 284 284 284 284 284 284 284 285 285 285 285 285 285 285 285 285 285 285 285 286 286 286 286 286 286 286 286 286 286 286
287 287 287 287 287 287 286 286 285 285 285 285 284 284 284 284 284 284 284 283 283 283 282 282 282 282 282 282 282 282 282 282 283 283 283 283 283 283 282 282 282 282 282 282 282 282 282 282 282 282 282 282 283 283 283 283 284 284 284 284 284 284 284 285 285 285 285 285 285 285 285 285 285 285 285 285 286 286 286 286 286 286 286 286 286 286
287 287 288 287 287 286 286 285 285 285 285 285 284 284 284 284 284 283 283 282 282 282 282 282 282 282 282 282 282 282 282 282 282 283 282 282 282 282 282 282 281 281 281 281 281 281 281 281 282 282 282 282 283 283 283 283 283 284 284 284 284 284 284 285 285 285 285 285 285 285 285 285 285 285 285 285 286 286 286 286 286 286 286 286 286 286
288 288 288 287 286 286 285 285 284 284 284 284 284 284 283 283 283 282 282 282 282 281 281 281 281 281 281 281 281 282 282 282 282 282 282 282 281 281 281 281 281 281 281 281 281 281 281 281 281 282 282 282 282 282 283 283 284 284 284 284 284 284 284 284 284 284 284 284 284 285 285 285 285 285 285 285 286 286 286 286 286 286 286 286 286 286
288 288 287 286 286 285 285 284 284 284 284 284 283 283 283 282 282 282 282 281 281 281 281 281 281 281 281 281 281 281 281 281 281 281 281 281 280 280 280 280 280 280 280 280 280 280 281 281 281 281 281 282 282 282 283 283 284 284 284 284 284 284 284 284 284 284 284 284 284 285 285 285 285 285 285 285 285 286 285 285 285 285 285 286 285 286
288 287 287 286 285 285 285 284 284 284 284 283 283 283 282 282 282 281 281 281 281 280 280 280 280 280 280 280 280 280 280 280 280 280 280 280 279 279 279 279 279 279 280 280 280 280 280 280 280 280 281 281 282 283 283 283 283 283 283 283 283 284 284 284 284 284 284 284 285 285 285 285 285 285 285 285 285 285 285 285 285 285 285 285 285 285
287 287 286 286 285 285 285 284 284 284 284 283 282 282 282 282 281 281 281 280 280 280 280 280 279 279 279 279 279 279 279 279 279 279 279 279 279 279 279 279 279 279 279 279 279 279 280 280 280 280 281 281 282 282 282 282 282 283 283 283 283 283 283 284 284 284 284 285 285 285 285 285 285 285 285 285 285 285 285 285 285 285 285 285 285 285
286 286 286 286 285 285 284 284 284 284 283 283 282 282 281 281 281 281 280 280 280 280 279 279 279 279 279 278 278 278 278 278 278 278 278 278 278 278 278 279 279 279 279 279 279 279 279 280 280 280 281 281 281 281 281 282 282 282 283 283 283 283 284 284 284 284 284 284 284 284 284 285 285 285 285 285 285 285 285 285 285 285 285 285 284 284
286 286 286 286 285 285 285 284 284 283 282 282 282 281 281 281 281 280 280 280 280 279 279 279 279 278 278 278 278 278 278 278 278 278 278 278 278 278 278 278 279 279 279 279 279 279 279 279 280 280 280 281 281 281 281 282 282 282 283 283 283 284 284 284 284 284 284 284 284 284 284 284 284 284 284 285 285 285 285 285 285 284 284 284 284 284
286 286 286 286 285 285 284 284 283 282 282 282 281 281 281 281 281 280 280 280 279 279 279 278 278 278 278 278 278 278 278 278 278 278 278 278 278 278 278 278 278 279 279 279 279 279 279 280 280 280 280 280 281 281 281 282 282 282 283 283 283 283 283 283 283 283 284 284 284 284 284 284 284 284 284 285 285 285 284 284 284 284 284 284 284 284
286 286 286 285 285 284 283 283 282 282 281 281 281 281 281 281 280 280 280 279 279 279 279 278 278 278 278 278 278 278 279 279 279 279 278 278 278 278 278 278 279 279 279 279 279 279 280 280 280 280 280 281 281 281 281 282 282 282 282 282 283 283 283 283 283 284 284 284 284 284 284 284 284 284 284 284 284 284 284 284 284 284 284 284 284 284
286 286 286 285 284 283 282 282 282 281 281 281 281 281 281 280 280 280 279 279 279 279 278 278 278 278 278 279 279 279 279 279 279 279 279 279 279 279 279 279 279 279 279 279 279 280 280 280 280 280 280 281 281 281 281 281 282 282 282 282 283 283 283 283 284 284 284 284 284 284 284 284 284 284 284 284 284 284 284 284 284 284 284 284 284 284
286 285 285 284 283 282 282 281 281 281 281 281 281 281 281 280 280 279 279 279 278 278 278 278 278 278 278 278 279 279 279 279 280 280 280 279 279 279 279 279 279 279 279 279 280 280 280 280 280 280 281 281 281 281 281 282 282 282 282 283 283 283 283 283 284 284 284 284 284 284 284 284 284 284 284 284 284 284 284 284 284 284 283 283 283 283
284 284 283 283 282 282 282 282 282 282 282 281 281 281 280 280 279 279 278 278 278 278 278 278 278 278 278 279 279 279 280 280 280 280 280 280 280 280 280 280 280 280 280 280 280 280 280 280 280 281 281 281 281 281 281 282 282 282 282 283 283 283 283 283 283 284 284 284 284 284 284 284 284 284 284 284 284 284 284 283 283 283 283 283 283 283
283 283 282 282 282 282 282 282 282 281 281 281 281 280 280 279 278 278 278 278 278 278 278 278 278 278 279 279 279 279 280 280 280 280 280 280 280 280 280 280 280 280 280 280 280 280 280 280 281 281 281 281 281 281 281 282 282 282 282 282 283 283 283 283 283 283 284 284 284 284 284 284 284 284 284 284 284 283 283 283 283 283 283 283 283 283
282 282 282 282 282 282 282 282 281 281 281 280 280 279 279 278 278 278 277 277 277 277 278 278 278 278 279 279 279 279 279 280 280 280 280 280 280 280 280 280 280 280 280 281 281 281 281 281 281 281 281 281 281 281 281 281 282 282 282 282 283 283 283 283 283 284 284 284 284 284 284 284 284 284 284 283 283 283 283 283 283 283 282 282 282 282
282 282 282 282 282 282 282 281 281 281 280 280 279 279 278 278 277 277 277 277 277 278 278 278 278 279 279 279 279 279 279 279 280 280 280 280 280 280 280 280 280 281 281 281 281 281 281 281 281 281 281 281 281 281 281 281 282 282 282 282 283 283 283 283 284 284 284 284 284 284 284 284 284 284 283 283 283 283 283 282 282 282 282 282 282 282
282 282 282 282 282 281 281 281 281 280 280 279 279 278 278 277 277 277 277 277 278 278 278 278 278 279 279 279 279 279 279 279 279 279 279 280 280 280 280 280 280 280 280 280 280 280 281 281 281 281 281 281 281 281 282 282 282 282 283 283 283 283 283 284 284 284 284 284 284 284 284 283 283 283 283 283 283 282 282 282 282 282 282 282 282 282
282 282 282 282 281 281 280 280 280 279 279 279 278 278 277 277 277 277 277 277 277 278 278 278 278 278 279 279 279 279 279 279 279 279 280 280 280 280 280 280 280 280 280 280 280 281 281 281 281 281 282 282 282 282 282 282 283 283 283 283 283 284 284 284 284 284 284 284 283 283 283 283 283 283 282 282 282 282 282 282 282 282 282 282 282 282
282 282 281 281 280 280 280 279 279 279 278 278 278 277 277 277 277 277 277 277 277 278 278 278 278 278 278 279 279 279 279 279 279 280 280 280 280 280 280 280 280 280 280 280 281 281 281 281 281 282 282 282 282 283 283 283 283 283 284 284 284 284 284 284 284 283 283 283 283 283 283 283 282 282 282 282 282 282 282 282 282 282 282 282 282 282
Wind_Speed
8 9 10 10 10 11 11 10 10 10 10 10 10 10 10 10 10 11 11 11 10 10 10 10 11 11 12 13 14 15 15 13 12 11 10 10 10 10 10 10 10 9 8 8 8 8 8 9 10 11 11 12 13 14 14 15 15 16 16 17 17 17 17 18 18 18 18 18 18 18 18 18 18 17 17 17 17 17 18 18 18 18 18 18 18 18
9 10 10 10 10 11 11 10 9 9 10 10 10 11 11 11 11 11 11 10 10 9 10 10 11 12 13 13 14 15 15 14 12 11 11 11 11 10 10 9 9 8 7 7 7 8 8 9 10 11 12 12 13 14 15 15 16 16 16 17 17 17 18 18 18 18 18 18 18 18 18 17 17 17 17 17 17 18 18 18 18 18 18 18 18 18
11 11 10 10 10 10 10 10 9 9 10 10 11 11 12 12 12 11 10 9 9 9 9 10 11 12 13 13 14 15 15 14 13 12 11 11 10 10 9 8 7 7 6 6 7 7 8 9 10 11 12 13 14 14 15 15 16 16 17 17 17 17 18 18 18 18 18 18 17 17 17 17 17 17 17 17 18 18 18 18 18 18 18 18 18 19
11 11 11 10 10 10 10 10 10 10 10 11 11 12 12 12 12 11 10 10 9 9 10 10 11 12 13 13 14 14 15 15 13 12 11 10 9 8 7 6 6 5 5 6 7 8 9 10 11 12 13 13 14 15 15 16 16 16 17 17 17 17 17 17 17 17 17 17 17 17 17 17 17 17 17 18 18 18 18 18 18 18 18 18 18 19
10 10 10 10 10 10 10 10 10 10 11 11 11 11 11 11 11 11 10 10 10 10 10 10 11 12 12 13 13 14 15 15 14 12 10 9 8 7 6 5 5 5 6 7 8 9 10 11 12 12 13 14 14 15 15 16 16 16 17 17 17 17 17 17 17 17 17 17 17 17 17 18 18 18 18 18 18 18 18 18 18 18 18 18 19 19
10 10 10 10 10 11 11 10 10 10 11 11 11 11 11 11 11 11 10 10 9 10 10 11 11 12 12 13 14 15 16 16 14 12 10 9 7 7 7 7 7 8 9 9 10 10 11 12 12 13 14 14 15 15 15 16 16 16 16 16 17 17 17 17 17 17 17 17 18 18 18 18 18 18 18 18 18 18 18 18 19 19 19 19 19 20
10 10 10 11 11 11 11 11 11 10 10 10 10 11 11 10 10 10 10 10 10 10 11 12 12 12 12 13 13 14 15 15 14 13 11 10 10 9 9 10 10 11 11 11 11 12 12 13 13 14 14 14 15 15 15 15 16 16 16 16 16 17 17 17 17 17 17 17 18 17 17 17 18 18 18 18 19 19 19 19 19 19 19 19 20 20
11 11 11 11 12 12 11 11 10 10 9 10 10 11 11 11 10 9 9 9 10 10 11 12 12 12 12 12 13 13 13 13 13 12 12 11 11 11 11 11 12 12 12 12 13 13 13 13 13 13 14 14 14 15 15 15 15 15 15 15 16 16 17 17 17 17 17 17 17 17 17 18 18 18 19 19 19 19 20 20 20 20 20 20 20 20
12 12 12 11 11 11 12 11 10 9 9 9 10 11 11 11 10 10 9 9 9 10 10 11 12 12 12 12 12 12 13 13 12 12 11 11 11 11 12 13 13 13 13 14 14 14 14 13 13 13 13 14 14 14 13 13 13 14 14 15 15 16 16 16 16 16 17 17 17 18 18 18 19 19 19 20 20 20 20 20 20 20 20 21 21 21
12 12 12 12 11 11 11 11 11 10 9 10 10 11 11 11 10 10 10 10 10 10 10 11 12 13 13 13 12 12 13 13 13 12 12 12 12 13 14 14 14 14 15 15 15 14 14 14 14 14 14 13 13 13 12 12 13 13 14 14 15 15 15 16 16 17 17 18 18 19 19 19 20 20 20 20 20 20 20 20 21 21 21 21 21 21
11 11 11 11 11 11 10 11 11 10 10 10 11 10 10 9 9 9 10 11 11 11 11 11 12 13 13 13 13 12 12 12 12 12 12 12 13 14 14 14 14 15 15 15 15 14 14 14 14 14 14 13 13 12 12 12 13 14 14 15 15 15 16 16 17 18 18 19 19 19 20 20 20 20 20 21 21 21 21 21 21 21 21 21 22 22
10 10 10 10 10 10 10 11 11 10 10 9 9 9 8 7 7 8 10 12 13 13 13 13 13 13 13 13 13 12 11 11 11 11 11 12 12 12 13 13 13 14 14 14 13 13 13 13 14 14 14 13 13 13 13 13 13 14 15 15 16 16 17 17 18 19 19 20 20 20 20 21 21 21 21 21 21 21 21 21 21 21 22 22 22 22
10 10 10 10 10 10 10 10 9 9 8 8 8 8 8 8 8 9 11 12 13 13 13 14 14 14 14 13 13 11 11 10 10 11 11 11 11 11 12 12 13 13 13 13 13 12 12 13 14 14 13 13 13 13 13 13 14 15 15 16 16 17 18 18 19 20 20 20 20 21 21 21 21 21 21 21 21 21 22 22 22 22 22 22 22 22
10 10 10 10 10 10 10 10 9 9 9 8 8 8 9 9 10 10 11 12 12 13 13 14 15 15 14 13 11 10 9 10 10 11 12 12 12 12 12 13 13 13 13 13 13 13 13 13 13 13 12 12 12 12 13 13 14 16 17 17 18 18 19 19 20 20 21 21 21 21 21 21 21 21 22 22 22 22 22 22 22 22 22 22 22 23
10 10 10 10 10 10 10 9 9 10 9 9 9 9 9 10 10 10 11 11 12 13 13 14 14 14 13 11 9 8 7 9 10 11 12 13 12 12 13 14 14 14 14 13 13 13 13 13 12 12 11 11 11 12 13 15 16 17 18 18 19 19 20 20 20 21 21 21 21 21 22 22 22 22 22 22 22 22 22 22 22 22 22 22 23 23
11 11 11 11 11 11 10 10 10 10 10 10 9 9 9 10 10 10 10 11 12 12 13 13 13 13 11 9 7 6 6 8 10 12 13 14 14 13 13 14 15 15 14 14 14 13 13 12 12 11 11 12 13 14 15 17 18 19 19 19 19 20 20 21 21 21 21 22 22 22 22 22 22 22 22 22 22 22 22 22 22 22 23 23 23 23
12 12 12 11 11 11 11 11 11 11 10 10 9 9 9 10 10 10 10 10 11 11 11 11 10 9 8 9 8 6 7 9 12 14 15 16 16 14 14 14 14 15 15 14 14 13 13 12 12 12 12 13 14 16 17 18 19 19 19 20 20 20 21 21 22 22 22 22 22 22 22 22 22 22 22 22 22 22 22 22 23 23 23 23 23 23
13 12 12 12 12 12 11 11 10 10 10 10 9 10 10 10 10 10 10 10 10 10 11 11 10 8 8 9 9 9 9 12 14 16 17 18 17 16 14 14 15 15 15 15 14 14 13 13 13 13 13 15 16 18 18 19 19 19 19 20 20 21 21 22 22 22 22 22 22 22 22 22 22 22 22 23 23 23 23 23 23 23 23 23 23 23
12 12 12 12 12 12 11 11 10 10 10 9 9 10 11 11 11 11 11 11 11 11 11 11 11 11 11 12 13 13 13 14 16 18 19 19 19 17 15 14 15 15 15 15 14 14 13 14 15 15 16 16 17 18 18 19 19 19 20 21 22 22 22 22 22 22 22 22 22 22 22 22 22 22 23 23 23 23 23 23 23 23 23 24 24 24
13 12 12 12 12 12 12 12 11 10 9 9 10 10 11 12 12 11 11 11 11 11 11 12 12 13 14 15 15 15 15 15 17 18 19 20 19 17 15 14 14 15 16 15 14 14 14 14 15 15 15 16 16 17 18 19 20 21 21 22 22 22 22 21 21 21 22 22 22 22 22 22 23 23 23 23 23 23 23 23 24 24 24 24 24 25
13 14 14 13 12 12 12 12 11 10 9 9 10 11 12 12 12 12 12 12 12 12 12 12 13 14 15 16 16 17 17 17 17 18 18 18 18 17 15 14 14 15 16 15 15 14 14 14 15 15 16 16 17 18 19 20 21 21 22 22 22 21 21 21 21 21 22 22 22 22 22 23 23 23 23 24 24 24 24 24 24 24 24 25 25 25
16 17 16 15 14 14 14 13 12 11 10 10 11 12 12 12 12 12 12 12 12 12 13 13 14 15 16 17 19 20 19 18 17 17 16 16 17 17 15 14 14 16 16 16 15 15 15 15 15 16 17 17 18 19 20 21 21 21 21 21 21 21 21 21 22 22 22 22 22 22 23 23 23 24 24 24 24 25 25 25 25 25 25 25 25 25
20 20 19 18 17 16 16 15 13 12 12 11 12 13 13 13 13 14 14 13 13 13 13 13 14 15 17 18 20 20 18 16 15 15 15 14 15 16 15 14 15 16 16 16 16 16 16 16 16 17 18 18 19 20 20 21 21 20 20 20 21 21 21 22 22 22 22 22 23 23 23 24 24 25 25 25 25 25 25 25 25 25 25 25 26 26
21 21 20 19 18 17 16 15 14 13 13 13 13 14 15 17 18 18 17 16 14 13 13 12 14 16 18 19 18 18 16 15 14 13 13 14 16 17 16 15 16 16 17 17 16 16 17 18 18 18 19 19 19 20 20 20 19 19 19 20 20 21 21 22 22 22 22 23 23 24 24 24 25 25 25 25 25 25 25 25 25 25 25 26 26 27
19 19 19 19 18 17 16 16 15 15 15 15 16 17 19 20 19 17 16 13 12 11 12 13 15 16 17 17 17 16 16 14 12 12 12 13 16 18 17 16 15 16 18 17 17 17 18 19 19 19 19 19 19 19 19 18 18 18 18 19 20 21 21 22 22 23 23 23 24 24 25 25 25 25 25 25 25 25 25 25 25 26 26 26 27 27
19 19 19 18 18 18 17 17 18 18 18 19 20 20 20 17 14 11 10 9 9 10 12 13 14 15 16 16 16 16 15 14 12 12 12 13 15 17 17 15 15 16 18 18 18 18 19 20 20 20 19 19 18 17 17 16 16 17 18 19 20 21 22 22 23 23 24 24 24 24 24 24 25 25 25 25 25 25 25 25 26 26 26 27 28 28
22 21 21 20 20 20 20 20 21 22 22 23 22 21 17 13 9 7 8 8 9 10 12 12 12 13 15 16 16 16 16 15 14 14 14 14 15 16 16 15 15 16 18 19 19 19 20 20 20 20 19 18 17 16 15 15 16 17 19 20 21 21 22 22 23 23 23 23 23 23 24 24 24 25 25 25 25 25 25 25 26 26 26 27 27 27
23 23 23 23 22 22 22 22 22 23 23 21 19 16 13 9 8 8 9 9 10 10 12 12 11 12 13 15 16 17 18 17 16 15 14 14 14 15 15 15 15 16 17 19 20 20 20 20 19 19 18 16 16 15 15 16 17 19 20 20 21 21 22 22 22 22 22 22 22 23 23 24 24 25 25 25 25 25 25 25 26 26 26 26 25 24
23 23 23 23 23 23 22 22 22 22 20 17 15 13 11 10 10 11 11 11 10 11 12 13 14 13 14 16 18 19 19 18 16 14 11 11 12 14 14 14 14 15 16 18 20 21 19 18 17 16 16 16 16 16 16 17 18 19 20 20 21 20 20 20 20 21 21 22 22 23 23 24 24 24 25 25 25 25 25 25 25 25 25 24 23 22
19 20 20 21 21 21 21 21 20 19 17 15 15 15 14 13 13 13 12 12 11 12 13 15 15 15 16 16 15 15 14 14 11 8 7 8 10 12 13 13 14 14 14 14 14 13 15 16 15 14 14 15 17 17 18 19 19 19 19 20 20 19 19 19 20 20 21 22 22 22 23 23 23 24 24 25 25 25 25 25 25 24 23 23 22 22
15 15 16 17 17 17 17 16 16 16 15 16 17 17 16 16 15 15 14 14 13 13 14 15 16 16 16 13 9 7 7 10 8 5 5 7 10 12 13 13 14 14 13 11 7 5 9 13 15 15 15 16 18 19 19 19 19 19 19 19 19 19 19 19 20 20 21 21 21 22 22 22 23 23 24 24 24 24 24 24 24 23 22 22 22 22
14 14 14 14 14 13 13 14 14 15 15 16 17 17 18 18 18 18 17 16 14 14 14 16 16 17 16 15 11 8 10 12 11 9 8 9 11 13 13 13 14 14 13 11 10 8 7 8 14 18 18 19 19 19 19 19 19 18 19 19 19 19 19 19 19 20 20 21 21 21 21 22 22 23 23 24 24 24 24 23 23 22 22 22 22 23
15 15 15 14 13 12 13 14 15 15 16 15 16 17 19 19 20 19 18 17 15 15 15 15 16 17 16 16 16 16 17 16 15 12 11 10 11 13 13 13 13 13 13 13 14 13 12 12 16 21 21 21 20 20 20 19 19 19 19 19 19 19 19 19 19 20 20 21 21 21 21 22 22 22 22 23 23 23 23 22 22 21 21 22 23 24
16 16 15 13 12 12 13 15 15 16 17 17 17 18 18 18 18 18 17 17 16 16 16 15 15 16 15 15 16 17 18 17 14 12 10 10 10 11 13 13 13 14 14 14 14 14 15 17 18 19 20 21 21 20 19 19 19 19 18 18 18 19 20 20 20 21 21 21 21 21 21 21 21 21 22 22 22 22 22 22 22 22 22 23 24 25
17 16 15 13 12 12 12 13 14 15 16 16 17 17 17 16 16 16 16 16 16 16 16 16 16 15 15 15 15 16 17 16 13 11 9 10 11 12 13 13 14 14 14 14 14 13 14 16 18 18 18 20 21 21 20 18 18 18 18 18 18 19 20 20 21 21 22 22 22 22 21 21 21 21 22 22 22 23 23 24 25 25 25 25 25 25
16 15 14 13 12 12 12 12 12 12 13 13 14 15 15 15 15 15 15 15 15 16 16 16 16 16 16 16 17 17 18 16 14 12 11 11 12 12 13 14 14 13 13 14 14 14 14 15 17 18 18 18 19 20 20 18 18 18 18 19 19 19 20 20 21 21 22 22 22 22 22 21 22 22 22 23 24 25 26 26 26 26 26 26 26 26
15 14 13 12 12 11 11 11 11 11 11 11 12 13 14 14 14 15 15 15 16 16 16 16 17 18 18 18 19 20 20 19 17 15 15 14 14 14 14 15 15 15 14 14 14 14 14 15 16 17 17 16 16 17 19 20 20 20 20 20 20 20 20 21 21 21 21 22 22 22 22 22 23 23 24 25 25 25 26 25 25 25 25 25 25 26
14 13 12 11 11 11 11 11 11 11 11 11 12 12 12 13 14 15 15 16 16 16 16 16 17 18 19 20 21 22 22 22 20 19 18 17 17 17 17 17 17 16 15 15 15 15 14 14 12 11 13 15 17 18 19 21 21 21 21 21 21 21 21 21 21 20 20 21 22 23 23 23 24 24 24 24 24 24 24 24 24 24 24 25 25 26
12 12 11 11 10 10 10 10 10 10 10 10 11 12 12 13 14 14 15 15 15 15 15 16 16 17 19 20 21 21 22 22 22 21 20 19 19 18 18 18 17 17 16 16 16 16 16 15 13 12 12 14 17 19 20 20 21 21 22 23 23 22 21 20 19 20 20 21 23 24 24 24 24 24 24 24 24 24 24 24 24 24 24 24 25 26
12 12 11 11 11 10 10 10 9 9 10 11 12 13 13 13 13 14 14 14 14 14 15 15 16 17 18 18 19 20 20 21 21 20 20 20 19 19 18 18 17 17 16 16 16 16 17 17 17 17 17 17 18 19 20 21 21 22 22 22 22 21 20 20 20 21 22 22 23 24 24 24 23 23 24 24 24 24 24 24 24 24 24 24 24 25
13 13 12 12 12 11 10 10 10 11 12 12 12 12 12 12 12 11 11 12 12 12 13 13 14 15 16 17 17 18 18 18 19 19 19 19 19 18 18 18 18 17 16 16 16 17 17 17 18 19 19 19 19 20 22 22 22 22 22 21 22 23 24 24 23 23 22 22 22 22 23 23 24 24 24 24 24 24 24 24 25 25 25 25 24 24
14 14 13 12 11 10 9 10 11 12 12 12 11 11 11 11 10 10 10 10 11 11 11 11 12 12 14 14 15 15 15 16 16 17 18 18 18 18 18 18 18 17 16 16 17 17 17 18 18 19 19 19 19 20 21 23 23 22 22 22 24 25 26 25 23 21 20 21 21 21 22 23 23 24 24 25 25 25 25 25 25 26 26 25 25 25
15 15 13 11 10 10 10 11 12 12 12 11 11 11 10 10 10 10 10 10 11 11 11 11 11 12 13 13 14 14 14 14 15 15 16 16 17 18 18 18 18 17 16 16 17 17 18 18 19 19 20 20 20 20 21 23 23 23 23 23 23 22 20 21 21 20 20 21 22 23 23 24 25 25 25 26 26 26 26 25 26 26 26 26 26 26
15 14 12 11 11 11 11 10 10 10 10 10 11 10 10 10 9 10 10 11 11 11 11 11 11 11 12 13 13 13 12 12 12 12 13 14 16 17 18 18 18 18 17 17 17 17 18 18 19 20 20 20 20 21 22 22 23 23 23 23 22 22 21 22 23 24 24 24 24 24 24 25 25 26 26 26 26 25 25 25 26 26 26 26 26 26
14 13 12 11 10 10 10 10 10 10 10 10 10 10 10 9 9 10 10 11 11 11 11 10 10 10 11 12 12 12 11 11 10 11 11 12 13 15 16 17 17 18 18 18 18 18 17 18 19 19 19 19 20 21 22 23 23 23 24 23 23 23 25 25 25 25 24 25 25 25 25 25 25 25 26 26 25 25 25 25 25 26 26 26 25 26
14 12 12 11 11 10 10 10 10 10 10 10 10 10 9 9 9 10 10 11 11 11 10 10 10 10 11 12 12 11 11 11 11 10 10 10 11 12 14 15 16 17 17 18 19 19 19 20 20 20 20 20 21 22 22 23 23 23 24 24 23 23 24 25 24 24 24 25 25 25 24 24 23 24 25 26 26 26 26 25 26 26 26 26 26 26
13 12 11 11 11 10 10 10 9 9 10 10 10 9 9 9 9 10 10 10 10 10 10 10 10 11 12 12 12 11 11 11 11 11 11 11 11 11 12 13 14 15 16 17 18 19 20 21 22 22 21 21 21 22 23 23 23 23 23 23 23 23 24 24 24 24 23 24 24 24 24 23 23 24 25 26 27 27 26 26 25 25 25 26 26 27
12 12 11 10 10 10 10 10 9 9 10 10 10 10 9 9 9 9 10 10 10 10 10 10 11 11 12 12 12 12 12 12 12 12 12 12 12 11 12 12 13 14 15 16 17 19 21 22 23 23 23 22 22 22 23 23 23 23 23 23 23 23 24 24 24 24 23 23 24 24 24 23 23 24 25 26 27 27 27 27 26 25 25 26 26 27
12 12 11 10 10 10 10 10 10 10 10 10 10 10 9 9 9 10 10 10 10 10 10 10 11 11 11 12 12 12 12 12 12 13 12 12 12 11 11 12 12 13 14 16 17 19 20 22 23 24 24 24 24 24 24 24 23 23 23 23 23 23 23 24 24 23 23 23 24 24 23 23 23 24 24 25 27 28 28 28 27 27 26 25 26 27
12 11 10 10 10 9 10 10 10 10 10 10 10 9 9 9 9 10 10 10 10 10 10 11 11 11 11 12 12 12 12 12 12 12 12 12 11 11 12 12 12 13 14 15 16 16 17 18 19 20 22 23 24 24 24 24 23 23 23 22 22 22 22 23 23 23 23 23 24 24 23 24 24 24 23 24 26 28 28 28 27 26 25 25 25 26
13 12 11 10 10 9 9 10 10 10 10 10 10 10 10 9 9 10 10 10 10 10 11 11 11 11 12 12 12 12 12 12 13 13 13 12 12 12 12 12 13 13 14 14 14 13 13 13 14 16 18 18 20 21 22 22 22 22 21 22 22 22 22 23 23 24 24 24 24 23 23 24 24 23 23 23 24 26 26 27 27 26 25 24 25 26
Wind_Direction
294 297 298 299 300 298 295 294 293 292 292 295 297 299 299 299 298 298 299 299 296 292 289 289 289 289 290 292 294 297 300 299 295 289 285 282 280 278 276 276 275 276 277 279 280 282 284 287 288 290 292 294 295 295 295 295 295 295 295 294 294 294 293 293 293 292 292 291 291 290 290 289 289 289 289 290 290 290 291 291 291 290 290 290 290 291
298 300 300 299 299 296 295 294 292 290 292 295 298 299 300 300 299 299 299 298 295 293 291 291 292 293 293 293 294 295 298 299 297 292 288 285 282 279 276 274 273 273 274 275 277 280 283 286 288 290 292 294 295 295 296 295 295 295 295 295 294 294 294 293 293 293 292 292 291 291 291 290 290 291 291 291 291 291 290 290 290 290 290 290 290 290
301 301 300 300 298 296 295 296 294 292 293 295 297 298 299 299 298 298 297 296 295 294 293 294 295 296 296 296 295 296 298 300 299 294 290 285 281 277 273 270 268 269 270 273 277 282 286 289 291 292 294 295 296 296 296 296 295 295 295 295 295 294 294 293 293 293 292 292 292 292 291 291 291 291 291 291 291 290 290 290 290 290 290 290 290 290
298 298 299 301 300 296 293 295 295 295 295 295 295 296 297 297 296 295 295 294 294 294 294 295 296 297 297 297 296 297 299 302 301 297 291 286 280 274 269 266 265 269 274 280 285 289 292 293 294 294 295 295 296 296 296 296 295 295 294 294 295 294 294 293 293 293 292 292 292 292 292 291 291 291 291 291 291 290 291 290 290 290 290 290 290 290
294 295 298 301 300 298 296 296 296 297 296 295 295 296 296 295 294 294 293 293 293 293 294 296 297 298 297 296 296 298 301 304 304 302 296 289 283 277 275 277 282 289 294 297 299 299 298 297 295 294 294 295 295 295 295 295 295 295 294 294 294 294 294 293 293 292 291 291 291 291 291 291 291 291 291 291 291 291 291 291 290 290 290 290 290 290
291 293 297 298 298 297 298 297 297 298 298 297 296 296 295 294 293 292 292 293 294 295 296 297 298 298 297 296 296 298 302 305 306 306 303 299 295 293 294 298 301 304 305 305 304 302 300 298 295 293 293 293 294 294 294 294 294 294 294 294 293 293 292 291 291 290 290 290 290 290 290 289 290 291 291 292 292 291 291 291 290 290 290 290 289 289
290 292 295 295 294 294 294 294 295 296 297 299 300 300 299 296 294 291 291 293 296 297 298 299 299 298 297 296 297 299 301 302 303 304 303 301 301 300 300 301 302 304 304 304 304 302 300 298 295 294 293 292 292 292 292 292 292 292 292 291 291 290 290 289 289 289 289 289 290 290 290 290 291 292 292 292 292 291 291 291 291 290 290 290 289 289
288 291 292 293 294 293 292 292 293 294 296 299 301 303 303 301 297 294 293 295 297 300 301 301 300 299 297 298 298 299 299 298 298 297 296 296 295 295 295 296 298 300 302 303 303 302 301 300 298 297 295 294 293 291 290 290 289 289 289 289 289 289 289 289 289 289 290 291 291 292 292 292 292 292 292 292 292 291 291 291 291 291 290 290 289 289
283 288 290 289 290 292 293 293 293 294 296 297 299 300 302 302 301 299 300 300 301 302 303 304 303 302 299 299 298 298 296 295 293 291 290 290 290 291 292 295 298 301 303 304 304 303 303 303 302 301 299 297 296 293 291 290 290 289 289 289 289 290 290 291 291 292 293 293 294 294 293 293 293 292 292 292 292 291 291 291 291 291 290 289 289 289
277 281 285 286 286 286 289 292 294 295 296 295 294 293 294 297 301 305 306 306 306 307 306 305 304 303 302 301 299 296 295 294 291 288 287 287 290 293 296 298 300 302 304 304 304 304 304 304 303 302 301 300 299 297 296 294 293 293 293 294 294 294 295 295 295 295 295 295 294 294 293 293 293 293 292 292 292 291 291 291 290 290 289 289 288 289
277 278 280 283 284 284 284 287 291 294 295 294 292 289 287 291 301 309 311 310 310 311 309 306 303 302 302 301 299 297 295 294 292 290 288 289 292 295 298 299 300 301 302 302 302 302 302 302 301 301 301 301 301 300 299 299 298 298 299 300 300 300 299 298 297 296 295 294 294 293 293 293 293 293 292 292 292 291 290 290 289 289 288 288 288 288
277 279 279 280 283 285 284 285 288 291 293 293 293 292 291 295 305 312 311 310 311 311 310 307 304 301 299 298 296 295 293 292 293 294 293 293 294 296 297 297 298 298 299 298 297 297 298 299 299 299 300 300 300 301 300 300 301 302 303 303 302 300 298 297 296 295 295 294 294 294 293 293 293 293 292 292 291 291 290 289 289 288 288 288 288 288
274 276 278 279 281 282 284 285 287 290 291 292 293 297 300 305 309 311 307 305 306 308 309 307 305 302 298 293 290 288 288 290 292 294 294 294 295 298 299 299 299 298 298 297 296 296 296 296 297 298 298 298 298 299 300 301 302 303 302 301 299 297 296 296 295 295 295 295 294 294 294 293 293 293 292 292 291 291 290 289 289 288 288 288 287 287
273 275 276 277 277 279 281 283 286 288 288 289 290 293 297 302 307 307 305 303 304 307 308 306 304 303 301 294 286 281 283 289 293 295 295 294 296 300 301 300 299 298 297 296 295 294 296 296 296 295 295 295 295 296 297 298 299 299 300 299 298 297 297 296 296 296 295 295 295 294 294 294 293 293 292 292 291 291 290 290 289 288 288 287 287 287
273 275 276 276 276 277 279 282 283 284 284 286 288 292 296 300 303 305 305 305 306 309 310 308 306 305 303 297 286 278 280 289 295 297 298 297 298 300 302 300 298 297 296 294 293 293 295 294 292 290 290 290 289 290 291 293 296 299 300 300 299 297 297 297 296 296 296 295 295 294 294 294 293 293 292 292 291 291 291 290 289 288 288 287 287 287
270 272 273 274 274 275 276 278 280 281 283 286 289 292 296 299 301 303 304 304 307 310 311 311 311 311 309 305 295 287 290 297 301 302 302 301 300 301 302 300 297 295 294 293 292 292 293 292 289 288 288 287 287 288 291 294 298 301 302 301 299 298 297 297 297 296 296 295 295 294 294 294 293 293 292 292 292 291 291 290 289 289 288 288 287 287
265 266 267 270 272 273 274 276 278 280 283 287 288 290 292 294 297 300 301 301 304 307 308 310 311 312 312 311 308 306 312 313 311 308 305 302 301 301 301 298 295 293 292 291 290 290 291 290 288 287 287 287 288 290 294 297 300 302 302 301 299 298 298 297 297 297 296 295 294 294 294 294 293 293 293 292 292 291 291 290 290 289 288 288 287 287
260 260 262 266 270 272 274 276 277 280 282 284 286 288 289 291 294 296 296 297 297 298 300 302 301 302 304 305 304 307 316 318 315 311 306 302 300 300 300 296 293 291 289 289 289 290 290 288 287 287 286 287 289 292 296 299 301 301 301 300 299 298 298 298 297 297 297 296 295 294 294 294 293 293 293 292 292 291 291 290 290 289 289 288 288 287
258 258 259 264 269 272 275 276 277 278 279 280 284 288 291 292 293 293 291 289 287 288 290 292 293 293 293 294 296 302 312 315 313 308 304 300 299 299 300 296 292 289 288 287 288 289 289 289 288 288 287 289 291 294 296 299 299 299 300 300 300 300 299 298 298 297 297 296 295 295 295 294 293 293 292 292 292 291 291 290 290 290 289 289 288 287
263 260 259 263 269 273 274 273 273 273 274 278 283 287 290 291 292 289 285 283 281 280 283 285 286 288 290 291 295 300 308 312 310 304 300 297 296 297 299 297 293 290 289 288 289 291 291 290 289 290 290 291 292 293 294 296 297 298 299 300 301 301 300 299 298 297 296 296 295 295 294 294 293 293 292 292 292 292 291 291 290 290 289 289 288 288
266 263 262 263 267 270 271 271 271 270 271 277 281 285 286 288 287 285 281 279 279 279 280 281 283 286 291 293 296 299 304 306 303 299 297 295 295 295 298 298 295 292 290 290 291 293 292 291 291 291 291 291 292 292 293 295 296 297 299 299 300 300 300 299 298 297 296 295 295 294 294 293 293 293 293 292 292 292 292 291 291 290 290 289 288 288
264 263 263 263 264 265 267 269 270 269 269 273 277 279 282 283 281 279 279 278 278 278 279 280 283 287 291 293 294 296 299 298 295 293 294 293 292 294 298 299 297 294 292 293 294 295 294 292 291 291 292 292 292 292 293 294 295 296 297 297 298 298 298 298 297 296 295 294 294 294 294 293 293 293 293 293 292 292 292 291 291 291 290 289 289 288
259 260 262 262 261 262 263 266 267 267 267 268 270 272 273 273 272 273 275 275 275 275 277 281 286 290 292 292 293 295 295 292 289 288 289 288 290 293 299 302 299 295 292 294 296 297 296 294 293 293 293 293 292 292 293 293 294 294 294 294 295 296 297 297 296 295 294 294 294 294 294 293 293 293 292 293 292 292 292 292 291 291 290 290 289 289
255 257 259 260 259 259 259 260 262 264 265 265 264 265 267 268 269 270 272 273 275 279 285 292 295 295 294 294 294 294 294 292 288 285 283 284 287 292 298 301 299 296 293 295 297 298 298 296 295 295 295 294 293 293 293 292 292 291 291 292 293 295 296 296 296 295 294 294 294 293 293 294 294 293 293 293 293 293 292 292 292 291 291 291 290 290
253 255 257 257 256 256 256 256 258 260 261 260 261 263 266 268 269 270 271 273 278 288 296 299 298 297 296 298 296 295 295 293 288 282 280 283 287 291 294 298 298 295 294 296 298 300 299 297 296 296 296 295 294 293 292 290 289 289 290 292 294 295 295 295 295 294 294 294 294 294 295 295 295 294 293 293 293 293 292 292 292 292 292 292 291 290
252 254 255 255 255 255 255 256 257 259 259 258 259 261 264 265 266 267 269 273 283 294 300 299 297 296 297 298 296 294 295 294 289 283 279 283 287 290 292 296 296 294 295 298 300 301 300 298 297 297 296 295 294 293 291 290 290 291 292 293 294 295 295 294 294 294 295 295 295 295 295 295 295 294 293 293 293 293 293 293 293 293 293 293 293 292
253 254 255 256 256 256 257 258 260 262 263 262 262 262 264 266 270 272 273 280 291 298 300 298 297 296 296 295 293 292 293 294 291 285 281 281 283 286 291 295 297 297 298 299 300 301 299 297 296 296 295 294 294 294 293 293 293 294 295 295 295 294 294 294 294 294 294 294 294 294 294 294 293 293 293 293 293 293 293 293 294 294 295 295 294 293
254 255 256 256 257 258 259 260 263 265 267 267 267 267 270 275 280 280 280 288 296 298 294 291 291 293 294 292 291 291 292 291 288 283 279 277 277 282 288 295 299 300 302 302 302 301 298 295 294 294 294 295 296 296 296 297 298 298 297 296 295 295 294 294 294 294 294 293 293 293 293 293 293 293 293 293 293 293 294 294 295 296 296 296 295 293
254 254 255 256 256 257 259 261 264 266 268 269 270 271 273 276 277 278 281 287 290 289 285 284 285 286 288 290 291 291 290 289 286 280 274 271 273 278 288 295 299 302 305 306 306 304 299 295 294 295 295 297 299 299 300 301 301 300 299 298 297 296 296 295 295 294 294 294 294 294 294 294 294 294 293 293 293 294 294 295 296 297 297 296 294 293
252 253 254 254 254 254 256 258 260 263 266 268 269 269 269 269 269 271 275 278 278 277 278 280 281 283 286 290 292 291 289 288 285 277 271 270 274 281 291 296 299 303 308 310 310 306 302 299 298 296 298 300 301 302 302 302 302 302 301 300 299 298 297 297 297 296 296 296 295 295 295 294 294 294 294 294 294 294 294 296 297 298 297 296 294 293
251 252 253 252 251 250 250 251 254 258 263 267 268 267 266 265 263 264 266 268 268 268 271 275 278 280 282 285 287 287 284 287 286 282 284 279 279 285 294 297 299 300 305 308 310 309 306 304 302 301 302 303 302 302 302 302 302 302 302 302 301 300 299 300 300 299 299 298 297 297 296 295 295 295 294 294 294 294 294 296 297 297 297 296 294 293
254 254 254 252 248 244 242 244 250 257 263 266 267 266 264 262 260 260 261 262 262 263 266 271 274 276 275 272 268 266 271 278 281 286 292 288 285 287 292 294 296 297 299 298 293 292 299 300 302 302 303 303 301 301 301 301 301 301 302 302 301 300 301 302 303 303 302 301 300 299 298 297 296 295 295 295 295 295 295 296 296 296 296 295 294 293
257 256 254 249 243 238 239 245 253 259 262 264 263 262 260 259 258 259 260 262 261 261 262 265 269 272 271 267 263 263 267 271 276 282 288 288 287 287 290 291 293 295 297 293 287 282 280 285 294 299 301 300 299 299 300 301 301 300 301 301 300 301 303 305 305 305 303 303 302 301 300 299 298 297 296 296 296 296 296 296 295 295 294 294 294 294
256 253 248 242 236 236 242 249 256 261 262 261 260 258 257 258 259 262 265 266 264 262 259 260 262 264 265 265 264 264 266 268 273 278 284 284 283 285 288 289 290 292 294 292 288 283 279 282 288 294 298 299 299 298 299 299 300 300 300 300 300 302 304 305 306 305 304 303 302 302 301 300 300 299 298 298 298 297 296 296 295 294 293 292 292 292
252 248 242 235 233 237 244 251 256 259 260 258 257 256 256 259 262 266 268 268 266 263 259 257 256 255 257 260 263 266 267 269 272 276 281 282 283 285 287 285 286 288 289 288 287 286 283 284 286 290 295 298 298 298 297 298 299 301 301 300 300 301 302 304 304 304 303 302 302 301 301 301 300 300 299 299 298 297 297 296 295 293 292 290 289 288
244 239 234 232 234 239 244 247 249 251 252 252 252 254 257 262 266 269 269 268 266 263 260 257 254 252 252 254 258 262 266 269 272 275 278 278 280 281 281 280 280 282 282 283 283 283 284 286 287 289 291 293 296 297 298 300 301 302 302 301 301 300 300 301 301 302 301 300 300 300 300 299 299 299 298 298 297 296 295 294 294 292 291 289 287 285
236 233 231 232 235 239 242 243 244 244 243 245 249 254 261 266 269 270 269 268 267 265 262 259 257 255 254 254 256 259 264 268 271 272 272 272 273 273 273 274 275 275 274 276 279 281 282 285 287 287 287 287 289 294 299 303 304 303 301 301 301 301 300 300 300 299 298 298 297 298 298 298 298 298 297 297 297 296 295 294 293 292 291 290 287 285
233 233 233 234 235 237 240 242 242 242 242 245 250 257 263 268 270 271 271 270 268 266 264 262 261 260 258 257 258 260 263 266 268 269 269 268 267 266 266 269 270 269 267 268 272 276 279 281 283 286 286 285 286 290 295 300 302 301 300 301 300 299 298 298 298 297 296 296 296 296 296 296 296 296 296 296 296 296 295 294 294 293 292 291 289 287
232 235 237 237 236 237 238 240 241 242 243 247 253 262 268 272 273 272 271 270 268 265 264 263 264 264 264 264 263 262 263 264 265 266 265 264 262 261 261 264 266 267 265 265 267 269 271 273 275 278 283 287 289 290 292 294 296 297 300 301 300 298 296 297 298 297 297 296 295 295 295 294 294 294 294 294 294 294 293 293 293 293 293 293 292 289
235 238 242 243 243 242 241 241 241 242 245 253 262 270 274 274 273 271 269 267 266 265 265 265 266 267 268 267 267 266 266 266 266 265 264 262 260 257 257 259 262 264 265 265 264 264 265 267 269 273 277 281 286 289 291 291 292 294 298 300 299 298 297 298 297 296 294 293 292 292 292 292 291 291 290 290 290 290 290 291 291 291 291 290 290 290
244 247 250 252 251 247 243 242 242 247 255 265 272 274 273 271 270 268 265 265 265 265 267 267 268 268 269 268 267 266 266 266 266 265 264 263 260 256 255 256 258 261 264 264 263 262 262 264 268 271 274 277 281 284 286 287 289 291 294 294 293 294 296 296 295 293 291 290 289 288 288 289 290 289 288 288 287 287 287 287 288 288 288 287 285 285
251 253 254 254 250 243 239 241 248 257 266 270 271 269 267 266 265 264 265 265 266 266 267 267 269 270 272 270 269 267 265 264 264 263 263 263 261 258 255 255 256 258 260 263 263 262 261 263 266 269 272 276 279 281 283 285 287 288 288 288 291 293 295 294 292 290 289 289 288 288 287 288 288 288 287 287 286 285 285 284 284 284 284 284 282 281
252 253 252 249 242 237 241 250 259 265 269 268 266 265 265 263 261 261 262 264 266 268 269 269 269 271 273 275 275 273 270 267 264 261 260 259 259 257 255 255 254 255 257 260 262 264 264 264 265 268 270 274 277 279 281 284 286 286 285 286 288 291 292 292 292 292 290 289 288 288 287 287 287 287 286 285 285 284 284 283 282 282 281 281 280 279
248 246 242 239 240 244 252 258 262 264 264 264 265 266 265 261 258 258 261 264 266 268 268 268 268 270 271 274 277 278 276 273 267 261 258 258 258 257 256 255 254 254 253 256 259 264 267 267 268 269 271 273 274 276 278 281 283 284 284 285 285 284 283 286 290 291 290 289 287 286 285 286 286 286 285 284 283 283 283 283 283 282 280 279 278 277
235 233 234 236 243 250 256 258 261 263 265 267 267 265 264 260 258 257 259 263 266 266 265 264 266 269 270 273 277 280 282 280 276 270 265 262 259 256 255 254 254 254 253 253 255 259 264 268 271 272 273 273 272 273 276 279 281 283 284 284 284 282 281 283 285 287 287 287 287 286 285 285 285 286 285 285 284 283 283 282 282 282 281 279 278 276
228 230 235 241 248 253 256 260 263 267 269 269 267 264 262 260 258 259 259 261 263 263 261 259 260 264 268 273 278 282 283 284 282 279 275 271 267 262 259 257 255 254 254 254 255 257 260 265 270 274 277 276 274 272 273 276 278 281 283 284 284 284 283 283 283 283 283 284 284 285 285 285 285 285 285 285 285 285 283 283 282 281 281 280 278 276
226 231 238 245 250 255 259 265 268 271 271 269 266 263 260 259 258 259 259 258 257 258 259 258 258 260 264 270 275 279 281 283 283 283 282 280 277 272 269 264 260 259 259 258 259 260 261 263 266 269 272 275 275 274 274 274 275 277 280 282 283 283 283 282 282 282 281 281 282 284 286 287 287 286 286 286 286 286 285 283 282 280 280 279 278 276
230 236 243 248 254 260 266 271 273 272 270 268 265 262 259 257 256 256 256 254 253 254 257 258 259 261 264 268 271 274 277 280 283 284 284 283 281 278 275 273 270 268 267 266 266 266 266 265 264 263 264 266 269 271 273 274 274 274 276 279 280 280 281 282 283 283 283 282 283 284 286 287 287 287 288 288 288 287 285 284 282 281 279 277 276 275
235 240 246 252 259 266 270 273 273 271 267 265 263 262 260 257 253 250 251 251 252 254 256 258 261 264 267 270 272 274 276 278 281 282 283 283 282 281 280 279 279 279 279 277 276 274 272 269 265 262 259 258 260 265 269 271 272 274 274 276 277 278 279 281 283 284 285 285 286 287 287 286 285 286 287 287 287 286 286 285 283 282 279 277 275 273
236 240 246 254 260 265 269 271 269 266 263 260 260 260 260 258 253 248 247 248 251 253 255 258 261 265 268 271 274 276 278 279 281 281 281 282 283 283 284 285 286 287 287 285 284 282 280 278 274 268 261 256 255 258 263 268 271 273 274 275 276 277 279 282 285 287 288 288 289 289 288 286 285 285 284 284 284 285 286 285 284 282 280 278 276 274
236 240 246 252 256 260 264 264 263 259 258 256 257 258 258 256 251 247 245 246 248 252 255 258 260 264 267 271 274 276 278 279 281 281 282 284 285 285 286 287 288 289 289 289 288 288 288 288 286 282 277 266 258 256 259 266 272 276 277 278 279 281 282 284 287 288 289 289 289 289 288 288 287 285 283 282 283 285 286 285 284 283 282 280 278 276